Weather History for Grantley Adams, Barbados

Change the Weather History Date:

Monday, February 18, 2013

  Actual Average Record
Temperature  
Mean Temperature 81 °F -  
Max Temperature 85 °F 83 °F 86 °F (1998)
Min Temperature 77 °F 74 °F 71 °F (2005)
Cooling Degree Days 16    
Growing Degree Days 31 (Base 50)    
Moisture  
Dew Point 72 °F    
Average Humidity 76    
Maximum Humidity 89    
Minimum Humidity 58    
Precipitation  
Precipitation 0.00 in - - ()
Sea Level Pressure  
Sea Level Pressure 29.99 in    
Wind  
Wind Speed 21 mph ()    
Max Wind Speed 29 mph    
Max Gust Speed -    
Visibility 8.2 miles    
Events Rain    
Averages and records for this station are not official NWS values.
T = Trace of Precipitation, MM = Missing Value Source: Averaged Metar Reports

Daily Weather History Graph

Daily Weather History Graph

Search for Another Location

Airport:

Trip Planner

Search our weather history database for the weather conditions in past years. The results will help you decide how hot, cold, wet, or windy it might be!

Date:

Astronomy

Feb. 18, 2013 Rise Set
Actual Time 6:19 AM AST 6:04 PM AST
Civil Twilight 5:57 AM AST 6:26 PM AST
Nautical Twilight 5:32 AM AST 6:51 PM AST
Astronomical Twilight 5:07 AM AST 7:16 PM AST
Moon 12:13 PM AST (2/18) 12:29 AM AST (2/18)
Length of Visible Light 12h 28m
Length of Day
11h 45m
First Quarter, 58% of the Moon is Illuminated
Feb 18
First Quarter
Feb 25
Full
Mar 4
Last Quarter
Mar 11
New
Mar 19
First Quarter

Hourly Weather History & Observations

Time (AST) Temp. Heat Index Dew Point Humidity Pressure Visibility Wind Dir Wind Speed Gust Speed Precip Events Conditions
12:00 AM 78.8 °F - 73.4 °F 83% 29.98 in 6.2 mi ESE 21.9 mph - N/A   Scattered Clouds
1:00 AM 78.8 °F - 73.4 °F 83% 29.98 in 6.2 mi ESE 23.0 mph - N/A   Scattered Clouds
2:00 AM 78 °F - 73 °F 81% 29.97 in 14 mi ESE 20.7 mph - -   Partly Cloudy
2:00 AM 77.0 °F - 73.4 °F 89% 29.98 in 6.2 mi ESE 20.7 mph - N/A   Scattered Clouds
3:00 AM 77.0 °F - 73.4 °F 89% 29.95 in 6.2 mi ESE 20.7 mph - N/A   Scattered Clouds
4:00 AM 77.0 °F - 73.4 °F 89% 29.95 in 6.2 mi ESE 20.7 mph - N/A   Scattered Clouds
5:00 AM 78 °F - 73 °F 80% 29.96 in 14 mi ESE 19.6 mph - -   Mostly Cloudy
5:00 AM 77.0 °F - 73.4 °F 89% 29.95 in 6.2 mi ESE 20.7 mph - N/A   Scattered Clouds
6:00 AM 77.0 °F - 73.4 °F 89% 29.98 in 6.2 mi ESE 21.9 mph - N/A   Scattered Clouds
7:00 AM 77.0 °F - 73.4 °F 89% 29.98 in 6.2 mi ESE 20.7 mph - N/A   Scattered Clouds
8:00 AM 80 °F - 72 °F 72% 30.01 in 14 mi ESE 24.2 mph - -   Widespread Dust
8:00 AM 78.8 °F - 73.4 °F 83% 30.01 in 6.2 mi ESE 24.2 mph - N/A   Scattered Clouds
9:00 AM 82.4 °F 87.2 °F 71.6 °F 70% 30.04 in 6.2 mi ESE 24.2 mph - N/A   Scattered Clouds
10:00 AM 82.4 °F 87.2 °F 71.6 °F 70% 30.04 in 6.2 mi East 26.5 mph - N/A   Scattered Clouds
11:00 AM 83 °F - 71 °F 60% 30.03 in 12 mi East 26.5 mph - -   Widespread Dust
11:00 AM 82.4 °F 87.2 °F 71.6 °F 70% 30.04 in 6.2 mi East 26.5 mph - N/A   Mostly Cloudy
12:00 PM 84.2 °F 89.6 °F 71.6 °F 66% 30.01 in 6.2 mi ESE 28.8 mph - N/A   Scattered Clouds
1:00 PM 84.2 °F 92.3 °F 75.2 °F 74% 29.98 in 6.2 mi East 27.6 mph - N/A   Mostly Cloudy
2:00 PM 84 °F - 72 °F 58% 29.97 in 12 mi ESE 24.2 mph - -   Widespread Dust
2:00 PM 84.2 °F 89.6 °F 71.6 °F 66% 29.98 in 6.2 mi ESE 25.3 mph - N/A   Scattered Clouds
3:00 PM 84.2 °F 90.9 °F 73.4 °F 70% 29.95 in 6.2 mi ESE 24.2 mph - N/A   Scattered Clouds
4:00 PM 82.4 °F 87.2 °F 71.6 °F 70% 29.95 in 6.2 mi East 23.0 mph - N/A   Scattered Clouds
5:00 PM 80 °F - 71 °F 67% 29.96 in 16 mi East 25.3 mph - -  
5:00 PM 80.6 °F 84.6 °F 71.6 °F 74% 29.95 in 6.2 mi East 25.3 mph - N/A   Scattered Clouds
6:00 PM 78.8 °F - 69.8 °F 74% 29.95 in 6.2 mi ESE 20.7 mph - N/A   Partly Cloudy
7:00 PM 78.8 °F - 71.6 °F 78% 29.98 in 6.2 mi ESE 24.2 mph - N/A Rain Light Rain Showers
8:00 PM 78 °F - 68 °F 64% 29.99 in 16 mi East 23.0 mph - -   Scattered Clouds
8:00 PM 78.8 °F - 68.0 °F 69% 29.98 in 6.2 mi East 23.0 mph - N/A   Partly Cloudy
9:00 PM 77.0 °F - 69.8 °F 78% 30.01 in 6.2 mi East 24.2 mph - N/A   Scattered Clouds
10:00 PM 78.8 °F - 69.8 °F 74% 30.01 in 6.2 mi East 24.2 mph - N/A   Scattered Clouds
11:00 PM 78 °F - 70 °F 70% 30.02 in 16 mi East 23.0 mph - -   Partly Cloudy
11:00 PM 77.0 °F - 69.8 °F 78% 30.01 in 6.2 mi East 23.0 mph - N/A   Scattered Clouds